Location: *
(42.9167°N, 2.6167°W)
Time: 13:24:38
(UTC+00:00)

Daily predictions for brighter satellites

Satellite Brightness Start Highest point End
(mag) Time Altitude Azimuth Time Altitude Azimuth Time Altitude Azimuth
Cosmos 1707 Rocket 3.8 17:03:08 10° SSW 17:07:35 78° W 17:12:05 10° N
SL-4 R/B 2.9 17:05:43 10° W 17:09:05 33° NNW 17:12:42 10° NE
Aureole 1 Rocket 4.1 17:07:41 10° SE 17:09:16 14° E 17:10:54 10° ENE
CZ-4 R/B 3.2 17:10:25 10° ENE 17:11:25 11° ENE 17:12:25 10° NE
Cosmos 2278 Rocket 2.3 17:07:05 10° NNW 17:12:42 59° ENE 17:18:16 10° SE
Shenzhou-11 Module 1.7 17:11:31 10° W 17:14:16 89° S 17:17:00 10° E
Cosmos 2360 Rocket 4.1 17:10:00 10° WSW 17:14:30 24° NW 17:19:03 10° N
STARLINK-46 4.3 17:12:52 10° W 17:15:04 23° NNW 17:17:16 10° NNE
Okean-O 3.5 17:12:15 10° SE 17:16:03 29° ENE 17:19:51 10° N
SMAP 3.2 17:13:30 10° SSE 17:18:01 55° ENE 17:22:34 10° N
Meteor 2-6 Rocket 4.4 17:14:23 10° SSW 17:19:44 74° W 17:25:10 10° N
Cosmos 2279 Rocket 4.3 17:13:51 10° N 17:20:06 74° W 17:26:20 10° S
STARLINK-29 4.1 17:17:55 10° SSW 17:21:08 34° SE 17:24:05 12° ENE
USA 215 3.7 17:18:43 10° NE 17:25:05 56° NNW 17:31:26 10° WSW
PSLV R/B 4.0 17:20:55 10° NNE 17:25:05 88° WNW 17:29:12 10° SSW
SL-16 R/B 3.3 17:22:11 10° SSE 17:26:40 25° ESE 17:30:56 11° NE
ALOS 4.3 17:23:29 10° SSW 17:27:40 33° W 17:31:53 10° NNW
ISS -3.8 17:24:42 10° WNW 17:28:04 87° NNE 17:31:25 10° ESE
Cosmos 1743 4.4 17:26:15 10° NE 17:28:13 13° ENE 17:30:10 10° E
Cosmos 1908 Rocket 4.2 17:24:36 10° N 17:28:38 34° ENE 17:32:36 10° SE
Cosmos 1900 4.4 17:25:15 10° NNW 17:30:04 55° NE 17:34:50 10° SE
Cosmos 2251 Rocket 3.6 17:25:18 10° SSW 17:30:37 90° NNW 17:35:56 10° NNE
COSMO-SKYMED 1 3.7 17:29:58 10° NE 17:33:33 25° E 17:37:07 10° SSE
Cosmos 2333 Rocket 3.3 17:29:55 10° SW 17:35:20 42° WNW 17:40:50 10° NNE
AQUARIUS 4.1 17:31:10 10° SSE 17:35:38 75° ENE 17:40:09 10° N
STARLINK-60 3.0 17:33:08 10° SW 17:36:31 78° SE 17:38:58 17° ENE
Cosmos 2237 Rocket 2.2 17:31:12 10° SSW 17:36:53 80° ESE 17:42:37 10° NNE
Cosmos 1812 2.9 17:34:33 10° SSW 17:38:24 74° W 17:42:17 10° N
Nadezhda 4 Rocket 4.0 17:32:11 10° S 17:38:30 80° E 17:44:50 10° N
YAOGAN 1 3.8 17:36:09 10° ESE 17:39:14 19° ENE 17:42:18 10° NNE
Envisat 3.1 17:37:42 10° SE 17:42:35 50° ENE 17:47:30 10° N
Okean 1-7 3.8 17:39:06 10° SSE 17:42:56 31° E 17:46:42 11° NNE
YAOGAN 6 3.4 17:40:26 10° SE 17:43:28 27° ENE 17:46:32 10° NNE
CORIOLIS 4.1 17:38:45 10° SSE 17:44:12 82° ENE 17:49:41 10° NNW
Cosmos 292 Rocket 3.9 17:40:06 10° N 17:44:51 50° ENE 17:49:33 10° SE
COBE Rocket 3.8 17:43:42 10° N 17:48:21 84° WNW 17:53:04 10° SSW
Cosmos 2219 Rocket 3.7 17:44:45 10° WSW 17:49:48 34° NW 17:54:54 10° N
Cosmos 407 Rocket 4.1 17:47:14 10° SSE 17:51:51 34° E 17:55:06 18° NE
Cosmos 1733 Rocket 4.1 17:48:04 10° NNW 17:52:19 50° W 17:56:34 10° SSW
Cosmos 1500 4.2 17:50:22 10° NNW 17:54:00 48° W 17:57:36 10° SSW
Cosmos 1992 Rocket 4.3 17:51:56 10° NNW 17:57:09 72° WSW 18:02:21 10° S
USA 267 3.5 17:51:59 10° SE 17:58:32 75° SW 18:05:06 10° NW
Cosmos 2026 Rocket 4.0 17:54:46 10° SSE 18:00:36 53° E 18:06:29 10° NNE
Meteor 1-27 Rocket 4.2 17:55:12 10° SSW 18:00:51 64° WNW 18:06:42 10° N
Cosmos 1943 Rocket 3.5 17:59:16 10° N 18:03:07 20° NE 18:03:07 20° NE
Cosmos 1980 4.3 18:02:32 10° SW 18:08:03 55° WNW 18:13:38 10° NNE
BREEZE-M R/B 3.7 18:03:27 10° WNW 18:08:06 31° N 18:09:04 26° NNE
Cosmos 1867 4.3 18:04:30 10° NNW 18:09:20 31° NE 18:10:41 27° ENE
H-2A R/B 4.1 18:05:52 10° SSW 18:09:21 39° W 18:12:50 10° NNW
CSL-04 Rocket 3.9 18:05:54 10° SE 18:10:50 43° ENE 18:15:50 10° N
Cosmos 1441 Rocket 3.0 18:09:31 10° N 18:13:19 66° ENE 18:17:03 10° SSE
Cosmos 921 Rocket 3.0 18:10:25 10° N 18:14:37 52° ENE 18:18:51 10° SSE
Cosmos 2297 3.7 18:11:01 10° NNW 18:16:41 60° ENE 18:22:16 10° SE
SKYMED 2 3.4 18:18:20 15° NNE 18:21:53 82° ESE 18:26:13 10° S
Cosmos 2221 Rocket 4.2 18:19:04 10° SSE 18:22:36 35° ESE 18:22:36 35° ESE
Cosmos 1782 Rocket 3.4 18:19:00 10° N 18:23:22 74° E 18:27:41 10° SSE
BREEZE-M DEB (TANK) 4.3 18:22:53 10° W 18:24:38 19° SW 18:26:24 11° SSE
Sich 1 Rocket 3.5 18:20:40 10° N 18:25:01 58° E 18:29:20 10° SSE
FALCON 9 DEB 3.6 18:22:24 10° WSW 18:25:50 54° NNW 18:26:23 47° N
CSL-04 Debris 4.1 18:21:50 10° SSE 18:27:12 61° ENE 18:32:34 10° N
Meteor 1-18 Rocket 4.2 18:21:58 10° S 18:27:37 63° E 18:31:59 17° NNE
Cosmos 1627 Rocket 4.4 18:23:41 10° S 18:29:48 85° W 18:35:59 10° N
Genesis I 3.0 18:28:55 10° NNW 18:32:49 82° ENE 18:33:25 61° SE
Cosmos 1703 Rocket 4.1 18:28:27 10° SSW 18:32:53 61° W 18:37:20 10° N
Cosmos 1655 Rocket 4.2 18:28:01 10° SSE 18:34:00 47° E 18:37:01 27° NNE
Cosmos 1666 4.3 18:34:54 10° NNW 18:38:20 35° W 18:41:44 10° SSW
STARLINK-43 4.3 18:36:02 10° SSW 18:38:45 35° S 18:38:45 35° S
NOAA 15 4.5 18:35:17 10° SSE 18:40:33 85° ENE 18:45:50 10° NNW
Lacrosse 5 rocket 3.3 18:37:59 10° WNW 18:40:55 18° NNW 18:41:49 17° N
DMSP B5D1-3 4.5 18:44:09 55° ENE 18:44:38 58° E 18:49:39 10° S
Cosmos 1190 Rocket 3.9 18:39:57 10° SSW 18:45:08 89° ESE 18:47:08 39° NNE
CZ-4 R/B 1.6 18:42:04 10° S 18:45:56 64° WSW 18:49:47 10° NNW
Meteor 2-9 Rocket 4.2 18:40:41 10° N 18:46:29 59° ENE 18:52:10 10° SSE
Cosmos 676 Rocket 4.0 18:42:02 10° S 18:46:54 55° ESE 18:46:54 55° ESE
Okean 1 3.6 18:44:55 10° SSW 18:48:52 67° W 18:49:42 51° NNW
Shenzhou-11 Module 4.2 18:46:45 10° W 18:48:05 23° WSW 18:48:05 23° WSW
SL-4 R/B 3.7 18:46:23 10° NW 18:48:47 22° NNW 18:48:47 22° NNW
NOAA 11 4.0 18:44:27 10° SSE 18:49:53 73° ENE 18:55:22 10° N
STARLINK-52 4.3 18:46:45 10° WSW 18:49:38 41° NW 18:49:38 41° NW
Cosmos 1954 Rocket 4.0 18:50:58 10° S 18:55:30 59° SE 18:55:30 59° SE
Cosmos 1743 3.8 19:00:33 10° NNW 19:04:15 44° W 19:07:55 10° SSW
ISS -0.6 19:02:54 10° WSW 19:04:21 12° SW 19:05:48 10° SSW
USA 215 4.5 19:05:18 25° NNE 19:07:16 29° NNW 19:12:42 10° WNW
COSMO-SKYMED 1 4.3 19:06:52 15° NNW 19:09:43 31° WNW 19:13:32 10° SW
Cosmos 2369 Rocket 3.5 19:04:36 10° NNW 19:07:18 27° N 19:07:18 27° N
CZ-4C R/B 4.1 19:05:54 10° S 19:06:34 14° S 19:06:34 14° S
SL-16 R/B 2.9 19:04:55 10° SW 19:10:26 50° WNW 19:12:51 31° N
YAOGAN 1 3.8 19:10:56 10° S 19:15:01 41° W 19:19:08 10° NNW
S3M 3.9 19:14:07 10° N 19:20:21 81° W 19:26:28 10° S
Meteor 2-13 Rocket 4.4 19:14:31 10° SSW 19:20:33 79° W 19:22:12 51° N
Cosmos 2237 Rocket 4.5 19:17:44 10° W 19:21:39 19° NW 19:25:23 11° N
Lacrosse 5 3.9 19:20:54 10° SSW 19:22:23 19° S 19:22:23 19° S
Meteor 2-4 Rocket 4.1 19:21:44 10° S 19:26:25 58° SSW 19:26:25 58° SSW
Cosmos 2266 Rocket 4.3 19:22:49 10° S 19:27:43 56° S 19:27:43 56° S
Cosmos 1140 Rocket 4.3 19:25:25 10° SW 19:30:20 46° WNW 19:30:32 46° WNW
Cosmos 2344 4.4 19:30:15 10° NNW 19:39:48 60° NE 19:40:44 59° ENE
Cosmos 1943 Rocket 3.7 19:42:02 10° NNW 19:44:42 29° NNW 19:44:42 29° NNW
NOSS 3-1 (C) 4.4 19:41:46 10° NNW 19:47:15 50° N 19:47:15 50° N
CZ-3B R/B 4.4 20:02:18 10° SSW 20:04:32 17° S 20:04:32 17° S
